TJS-3

Last updated on Oct. 1, 2020, 5:42 a.m. UTC

1 43874U 18110A   20274.88262403 -.00000367  00000-0  00000-0 0  9992
2 43874   0.0930 291.4163 0000512 339.4058 167.8085  1.00272907  6500
UTC
Height (km)
Latitude
Longitude
Inclination
Orbital Period
UTC large
Height (km)
Speed (km/s)
/
Latitude / Longitude
Inclination (degrees)
Orbital Period (minutes)
Azimuth
Elevation
Range (km)
Doppler Factor
iOS Compass Heading
iOS Angle

Next 30 passes for location: Hong Kong

Rise time Rise Azimuth (degrees) Set time Set Azimuth (degrees) Duration Max altitude (degrees)

No matching passes for this satellites